Home   Weather   42°12'N, 91°31'W   Past weeks
Flag for USA

Past Weather in 42°12'N, 91°31'W, USA — Yesterday and Last 2 Weeks

Now
43 °F

Fog.


Feels Like: 43 °F
Forecast: 61 / 39 °F
Wind: No wind

Location: Vinton Veterans Memorial Airpark Airport

Current Time: Oct 19, 2019 at 10:46:05 pm

Latest Report: Oct 19, 2019 at 10:15 pm


Visibility: 0 mi

Pressure: 29.80 "Hg

Humidity: 100%

Dew Point: 43 °F

Location of 42°12'N, 91°31'WLocation

Past Weather in 42°12'N, 91°31'W — Graph

°F

42°12'N, 91°31'W Temperature Yesterday

Maximum temperature yesterday: 71 °F (at 2:15 pm)
Minimum temperature yesterday: 43 °F (at 12:35 am)
Average temperature yesterday: 56 °F

High & Low Weather Summary for the Past Weeks

 TemperatureHumidityPressure
High76 °F (Oct 8, 3:15 pm)100% (Oct 5, 9:15 am)30.25 "Hg (Oct 5, 9:15 am)
Low31 °F (Oct 14, 5:35 am)29% (Oct 7, 3:35 pm)29.71 "Hg (Oct 19, 4:55 am)
Average51 °F72%29.97 "Hg
* Reported Oct 4 9:15 pm — Oct 19 9:15 pm, 42°12'N, 91°31'W. Weather by CustomWeather, © 2019

Note: Actual official high and low records may vary slightly from our data, if they occured in-between our weather recording intervals... More about our weather records

Advertising

42°12'N, 91°31'W Weather History for the Previous 24 Hours

Scroll right to see more
 ConditionsComfort  
Time TempWeatherWind HumidityBarometerVisibility
9:15 pm
Sat, Oct 19
44 °FFog.No wind100%29.79 "Hg1 mi
8:55 pm44 °FFog.No wind100%29.79 "Hg1 mi
8:35 pm46 °FFog.No wind100%29.79 "Hg1 mi
8:15 pm48 °FFog.No wind100%29.79 "Hg0 mi
7:55 pm50 °FFog.No wind100%29.78 "Hg1 mi
7:35 pm51 °FFog.No wind100%29.78 "Hg5 mi
6:55 pm51 °FClear.No wind91%29.77 "Hg10 mi
6:35 pm53 °FClear.No wind88%29.77 "Hg10 mi
6:15 pm56 °FScattered clouds.No wind85%29.77 "Hg10 mi
5:55 pm56 °FScattered clouds.No wind81%29.76 "Hg10 mi
5:35 pm58 °FScattered clouds.No wind78%29.76 "Hg10 mi
5:15 pm58 °FPartly sunny.3 mph80%29.75 "Hg10 mi
4:55 pm57 °FScattered clouds.3 mph83%29.75 "Hg10 mi
4:35 pm56 °FScattered clouds.No wind84%29.74 "Hg10 mi
4:15 pm56 °FScattered clouds.3 mph86%29.75 "Hg10 mi
3:35 pm56 °FScattered clouds.7 mph87%29.74 "Hg10 mi
3:15 pm56 °FScattered clouds.5 mph97%29.74 "Hg10 mi
2:55 pm56 °FLight rain. Scattered clouds.5 mph99%29.73 "Hg10 mi
2:35 pm53 °FSunny.6 mph100%29.74 "Hg10 mi
2:15 pm53 °FRain. Scattered clouds.8 mph100%29.74 "Hg10 mi
1:35 pm53 °FRain. Mostly cloudy.6 mph100%29.75 "Hg7 mi
1:15 pm53 °FLight rain. Partly sunny.5 mph100%29.76 "Hg5 mi
12:55 pm56 °FRain. Broken clouds.7 mph93%29.76 "Hg5 mi
12:35 pm56 °FLight rain. Mostly cloudy.6 mph89%29.76 "Hg10 mi
12:15 pm56 °FRain. Cloudy.7 mph87%29.75 "Hg7 mi
11:55 am56 °FRain. Overcast.8 mph82%29.75 "Hg10 mi
11:35 am58 °FMostly cloudy.8 mph77%29.75 "Hg10 mi
11:15 am58 °FOvercast.9 mph77%29.73 "Hg10 mi
10:35 am56 °FOvercast.5 mph77%29.74 "Hg10 mi
10:15 am56 °FPartly sunny.9 mph76%29.75 "Hg10 mi
9:55 am56 °FScattered clouds.7 mph75%29.75 "Hg10 mi
9:35 am56 °FScattered clouds.9 mph76%29.75 "Hg10 mi
9:15 am53 °FSunny.5 mph79%29.73 "Hg10 mi
8:55 am51 °FSunny.7 mph81%29.73 "Hg10 mi
8:35 am51 °FSunny.6 mph82%29.71 "Hg10 mi
8:15 am51 °FSunny.6 mph82%29.72 "Hg10 mi
7:55 am51 °FSunny.8 mph82%29.73 "Hg10 mi
7:35 am51 °FSunny.10 mph82%29.73 "Hg10 mi
7:15 am51 °FClear.8 mph82%29.72 "Hg10 mi
6:55 am51 °FClear.8 mph82%29.72 "Hg10 mi
6:35 am51 °FClear.9 mph80%29.71 "Hg10 mi
6:15 am51 °FClear.9 mph80%29.71 "Hg10 mi
5:55 am51 °FClear.8 mph78%29.72 "Hg10 mi
5:35 am51 °FClear.9 mph77%29.71 "Hg10 mi
5:15 am51 °FClear.10 mph77%29.71 "Hg10 mi
4:55 am51 °FClear.9 mph77%29.71 "Hg10 mi
4:35 am51 °FClear.9 mph76%29.72 "Hg10 mi
4:15 am51 °FClear.8 mph76%29.72 "Hg10 mi
3:35 am51 °FClear.10 mph76%29.73 "Hg10 mi
3:15 am51 °FClear.10 mph75%29.73 "Hg10 mi
2:55 am51 °FClear.12 mph74%29.73 "Hg10 mi
2:35 am51 °FClear.12 mph75%29.73 "Hg10 mi
2:15 am52 °FClear.10 mph74%29.74 "Hg10 mi
1:55 am52 °FClear.9 mph73%29.74 "Hg10 mi
1:35 am52 °FClear.13 mph73%29.74 "Hg10 mi
1:15 am53 °FClear.12 mph73%29.75 "Hg10 mi
12:55 am53 °FClear.9 mph73%29.75 "Hg10 mi
12:35 am53 °FClear.10 mph70%29.75 "Hg10 mi
12:15 am55 °FClear.12 mph69%29.75 "Hg10 mi
11:55 pm
Fri, Oct 18
56 °FClear.9 mph69%29.75 "Hg10 mi
11:35 pm56 °FClear.10 mph67%29.76 "Hg10 mi
11:15 pm56 °FClear.12 mph66%29.76 "Hg10 mi
10:55 pm56 °FClear.12 mph64%29.76 "Hg10 mi
10:35 pm56 °FClear.10 mph63%29.76 "Hg10 mi
10:15 pm58 °FClear.13 mph61%29.75 "Hg10 mi
Weather by CustomWeather, © 2019

See weather overview